User: anonymous   Login
Location: Newark
(42.8270°N, 8.3618°W)
Time: 02:49:24
(UTC+00:00)
Language:

Hubble Space Telescope - Orbit

View from above orbital plane
View from above orbital plane
View from above satellite
View from above satellite

Ground track
Ground track

The orbit data is extracted from the following two-line orbital elements,

1 20580U 90037B   20295.19153487 +.00000597 +00000-0 +25309-4 0  9994
2 20580 028.4691 207.9871 0002654 010.3781 110.8035 15.09453776474974
Epoch (UTC): 21 October 2020 04:35:48
Eccentricity: 0.0002654
inclination: 28.4691°
perigee height: 536 km
apogee height: 540 km
right ascension of ascending node: 207.9871°
argument of perigee: 10.3781°
revolutions per day: 15.09453776
mean anomaly at epoch: 110.8035°
orbit number at epoch: 47497

The dashed part of the orbit path shows where the satellite is in the earth's shadow,  

DLR